カタログに戻る

COSMOS 2251 DEB

運用中LEO
NORAD 35440·DEBRIS·🇷🇺 Russia

打ち上げ Jun 16, 1993 から Plesetsk Cosmodrome

Loading…

次のパス (今後24時間)

TLE

最新Source: Space-Track

元期: Sep 14, 2026, 02:24 UTC

1 35440U 93036AKJ 26257.10055720  .00002014  00000-0  32893-3 0  9994
2 35440  74.0138  33.3800 0067357 106.0452 254.8151 14.70090090728108

AllMySatでCOSMOS 2251 DEBをリアルタイム追跡

Download on the App Store